Weather History for Mt. Pocono, PA

Change the Weather History Date:

Friday, October 21, 2011

  Actual Average Record
Temperature  
Mean Temperature 46 °F 47 °F  
Max Temperature 48 °F 56 °F 77 °F (1963)
Min Temperature 43 °F 38 °F 16 °F (1972)
Degree Days  
Heating Degree Days 19 18  
Month to date heating degree days 245 324  
Since 1 July heating degree days 390 592  
Cooling Degree Days 0 0  
Month to date cooling degree days 0 0  
Year to date cooling degree days 480 313  
Moisture  
Dew Point 37 °F    
Average Humidity 75    
Maximum Humidity 89    
Minimum Humidity 61    
Precipitation  
Precipitation 0.00 in 0.13 in 2.20 in (1904)
Month to date precipitation 4.41 2.97  
Year to date precipitation 70.92 39.31  
Sea Level Pressure  
Sea Level Pressure 29.91 in    
Wind  
Wind Speed 11 mph (West)    
Max Wind Speed 22 mph    
Max Gust Speed 30 mph    
Visibility 10 miles    
Events      
T = Trace of Precipitation, MM = Missing Value Source: NWS Daily Summary

Daily Weather History Graph

Daily Weather History Graph

Search for Another Location

Airport:

Trip Planner

Search our weather history database for the weather conditions in past years. The results will help you decide how hot, cold, wet, or windy it might be!

Date:

Astronomy

Oct. 21, 2011 Rise Set
Actual Time 7:19 AM EDT 6:12 PM EDT
Civil Twilight 6:51 AM EDT 6:40 PM EDT
Nautical Twilight 6:19 AM EDT 7:12 PM EDT
Astronomical Twilight 5:47 AM EDT 7:44 PM EDT
Moon 1:03 AM EDT (10/21) 2:58 PM EDT (10/21)
Length of Visible Light 11h 48m
Length of Day
10h 52m
Waning Crescent, 34% of the Moon is Illuminated
Oct 21
Waning Crescent
Oct 26
New
Nov 2
First Quarter
Nov 10
Full
Nov 18
Last Quarter

Hourly Weather History & Observations

Time (EDT) Temp. Windchill Dew Point Humidity Pressure Visibility Wind Dir Wind Speed Gust Speed Precip Events Conditions
12:53 AM 46.0 °F 40.2 °F 35.1 °F 66% 29.69 in 10.0 mi WSW 12.7 mph 20.7 mph N/A   Overcast
1:53 AM 46.0 °F 41.9 °F 36.0 °F 68% 29.71 in 10.0 mi WSW 8.1 mph 17.3 mph N/A   Overcast
2:53 AM 45.0 °F 38.5 °F 36.0 °F 71% 29.72 in 10.0 mi WSW 13.8 mph - N/A   Overcast
3:53 AM 45.0 °F 38.5 °F 36.0 °F 71% 29.73 in 10.0 mi West 13.8 mph - N/A   Overcast
4:53 AM 45.0 °F 39.3 °F 35.1 °F 68% 29.74 in 10.0 mi West 11.5 mph 24.2 mph N/A   Overcast
5:53 AM 44.1 °F 36.8 °F 35.1 °F 71% 29.77 in 10.0 mi West 16.1 mph - N/A   Overcast
6:53 AM 44.1 °F 38.6 °F 36.0 °F 73% 29.79 in 10.0 mi West 10.4 mph 17.3 mph N/A   Overcast
7:53 AM 43.0 °F 37.7 °F 36.0 °F 76% 29.83 in 10.0 mi West 9.2 mph - N/A   Overcast
8:53 AM 44.1 °F 37.1 °F 36.0 °F 73% 29.85 in 10.0 mi West 15.0 mph 20.7 mph N/A   Overcast
9:53 AM 45.0 °F 38.2 °F 36.0 °F 71% 29.82 in 10.0 mi West 15.0 mph 24.2 mph N/A   Overcast
10:05 AM 46.4 °F 39.5 °F 35.6 °F 66% 29.79 in 10.0 mi West 17.3 mph 25.3 mph N/A   Overcast
10:14 AM 46.4 °F 40.4 °F 35.6 °F 66% 29.80 in 10.0 mi West 13.8 mph 23.0 mph N/A   Overcast
11:53 AM 48.0 °F - 36.0 °F 63% 29.89 in 10.0 mi WNW 11.5 mph - N/A   Overcast
12:53 PM 48.0 °F - 36.0 °F 63% 29.91 in 10.0 mi West 17.3 mph 25.3 mph N/A   Overcast
1:53 PM 46.0 °F 39.6 °F 37.0 °F 71% 29.92 in 10.0 mi West 15.0 mph 24.2 mph N/A   Overcast
2:53 PM 46.0 °F 41.0 °F 37.0 °F 71% 29.92 in 10.0 mi WNW 10.4 mph - N/A   Overcast
3:40 PM 46.4 °F 41.5 °F 37.4 °F 71% 29.91 in 10.0 mi WNW 10.4 mph - N/A   Overcast
3:53 PM 46.9 °F - 37.0 °F 68% 29.94 in 10.0 mi West 9.2 mph - N/A   Overcast
4:29 PM 46.4 °F 41.1 °F 37.4 °F 71% 29.93 in 10.0 mi West 11.5 mph 20.7 mph N/A   Overcast
4:37 PM 46.4 °F 42.4 °F 37.4 °F 71% 29.93 in 10.0 mi West 8.1 mph - N/A   Overcast
4:49 PM 46.4 °F 42.4 °F 37.4 °F 71% 29.93 in 10.0 mi West 8.1 mph - N/A   Overcast
4:53 PM 46.9 °F - 37.0 °F 68% 29.96 in 10.0 mi West 11.5 mph - N/A   Overcast
5:00 PM 46.4 °F 41.9 °F 37.4 °F 71% 29.93 in 10.0 mi West 9.2 mph 19.6 mph N/A   Overcast
5:53 PM 46.0 °F 41.0 °F 37.0 °F 71% 29.99 in 10.0 mi West 10.4 mph - N/A   Overcast
6:10 PM 46.4 °F 42.4 °F 37.4 °F 71% 29.98 in 10.0 mi West 8.1 mph - N/A   Overcast
6:53 PM 46.0 °F 40.6 °F 37.0 °F 71% 30.05 in 10.0 mi West 11.5 mph - N/A   Overcast
7:06 PM 46.4 °F 41.9 °F 37.4 °F 71% 30.03 in 10.0 mi West 9.2 mph - N/A   Overcast
7:53 PM 45.0 °F 40.6 °F 37.0 °F 74% 30.04 in 10.0 mi West 8.1 mph - N/A   Overcast
8:14 PM 44.6 °F 39.7 °F 37.4 °F 76% 30.01 in 10.0 mi West 9.2 mph - N/A   Overcast
8:39 PM 44.6 °F 40.7 °F 37.4 °F 76% 30.00 in 10.0 mi West 6.9 mph - N/A   Overcast
8:53 PM 45.0 °F 40.1 °F 37.9 °F 76% 30.02 in 10.0 mi West 9.2 mph - N/A   Overcast
9:50 PM 44.6 °F 40.2 °F 37.4 °F 76% 30.00 in 10.0 mi West 8.1 mph - N/A   Overcast
9:53 PM 44.1 °F 40.1 °F 37.9 °F 79% 30.03 in 10.0 mi West 6.9 mph - N/A   Overcast
10:18 PM 44.6 °F 40.2 °F 37.4 °F 76% 30.01 in 10.0 mi West 8.1 mph - N/A   Overcast
10:42 PM 44.6 °F 40.7 °F 39.2 °F 81% 30.01 in 10.0 mi West 6.9 mph - N/A   Overcast
10:53 PM 44.1 °F 40.1 °F 39.0 °F 82% 30.03 in 10.0 mi West 6.9 mph - N/A   Overcast
11:17 PM 42.8 °F 38.6 °F 39.2 °F 87% 30.01 in 10.0 mi West 6.9 mph - N/A   Overcast
11:53 PM 43.0 °F 37.7 °F 39.0 °F 86% 30.03 in 10.0 mi West 9.2 mph - N/A   Overcast